This is the latest recevied weather packets stored in our database for station/object KF5WOE-13. If no packets are shown the sender has not sent any weather packets the latest 1 day(s).
| Time | Temp. | Humidity | Pressure | Rain* | Wind** | Luminosity | Snow |
|---|---|---|---|---|---|---|---|
| 1778028625 | 60° C | - | - | 0 mm | 0.89 m/s, 356° | - | - |
| 1778028323 | 60° C | - | - | 0 mm | 4.02 m/s, 348° | - | - |
| 1778028020 | 60° C | - | - | 0 mm | 4.92 m/s, 351° | - | - |
| 1778027716 | 60° C | - | - | 0 mm | 4.92 m/s, 346° | - | - |
| 1778027412 | 60° C | - | - | 0 mm | 3.13 m/s, 318° | - | - |
| 1778027108 | 60° C | - | - | 0 mm | 2.68 m/s, 358° | - | - |
| 1778026803 | 60° C | - | - | 0 mm | 4.02 m/s, 347° | - | - |
| 1778026501 | 60° C | - | - | 0 mm | 4.92 m/s, 0° | - | - |
| 1778026198 | 60° C | - | - | 0 mm | 5.36 m/s, 17° | - | - |
| 1778025895 | 60° C | - | - | 0 mm | 4.02 m/s, 10° | - | - |
| 1778025592 | 60° C | - | - | 0 mm | 5.81 m/s, 3° | - | - |
| 1778025291 | 60° C | - | - | 0 mm | 2.24 m/s, 311° | - | - |
| 1778024987 | 60° C | - | - | 0 mm | 2.68 m/s, 354° | - | - |
| 1778024684 | 60° C | - | - | 0 mm | 3.58 m/s, 331° | - | - |
| 1778024381 | 60° C | - | - | 0 mm | 2.24 m/s, 354° | - | - |
| 1778024079 | 60° C | - | - | 0 mm | 3.58 m/s, 353° | - | - |
| 1778023776 | 60° C | - | - | 0 mm | 4.47 m/s, 315° | - | - |
| 1778023474 | 60° C | - | - | 0 mm | 7.6 m/s, 359° | - | - |
| 1778023171 | 60° C | - | - | 0 mm | 6.71 m/s, 359° | - | - |
| 1778022868 | 60° C | - | - | 0 mm | 7.6 m/s, 7° | - | - |
| 1778022566 | 60° C | - | - | 0 mm | 4.92 m/s, 354° | - | - |
| 1778022263 | 60° C | - | - | 0 mm | 5.81 m/s, 356° | - | - |
| 1778021960 | 60° C | - | - | 0 mm | 4.02 m/s, 350° | - | - |
| 1778021657 | 60° C | - | - | 0 mm | 7.6 m/s, 358° | - | - |
| 1778021352 | 60° C | - | - | 0 mm | 6.71 m/s, 24° | - | - |
* Rain latest hour (hover to see other rain measurements)
** Current wind speed in m/s (hover to see current wind gust speed)